Location: ?????????
(38.5999°N, 22.7695°E)
Time: 16:25:00
(UTC+00:00)

SL-16 R/B - Pass Details

Date: 23 May 2024
Orbit: 985 x 1007 km, 99.7° (Epoch: 24 June)

Event Time Altitude Azimuth Distance (km) Brightness Sun altitude
Exits shadow 00:01:34 - 130° (SE) 3,732 5.4 -26.6°
Rises 00:01:36 0° 130° (SE) 3,721 5.4 -26.6°
Reaches altitude 10° 00:04:26 10° 119° (ESE) 2,776 4.8 -26.4°
Maximum altitude 00:09:32 27° 63° (ENE) 1,816 4.4 -26.0°
Drops below altitude 10° 00:14:40 10° 8° (N) 2,790 5.8 -25.5°
Sets 00:17:30 0° 358° (N) 3,743 6.5 -25.2°
